Meteo pe oră la Dachniy

Astăzi, 11 Aprilie, Duminică

Timp Temperatura Precipitaţii Vânt Presiune Umiditate
00:00 0°C° 0 mm 4 m/s 753 mmHg 81%
01:00 0°C° 0 mm 5 m/s 753 mmHg 80%
02:00 0°C° 0 mm 5 m/s 753 mmHg 80%
03:00 0°C° 0 mm 5 m/s 753 mmHg 80%
04:00 -1°C° 0 mm 4 m/s 753 mmHg 81%
05:00 -1°C° 0 mm 4 m/s 753 mmHg 83%
06:00 -1°C° 0 mm 4 m/s 754 mmHg 85%
07:00 0°C° 0 mm 4 m/s 754 mmHg 80%
08:00 +1°C° 0 mm 4 m/s 755 mmHg 74%
09:00 +4°C° 0 mm 4 m/s 756 mmHg 69%
10:00 +4°C° 0 mm 4 m/s 756 mmHg 63%
11:00 +5°C° 0 mm 3 m/s 757 mmHg 57%
12:00 +7°C° 0 mm 3 m/s 757 mmHg 51%
13:00 +7°C° 0 mm 3 m/s 758 mmHg 50%
14:00 +8°C° 0 mm 3 m/s 758 mmHg 48%
15:00 +8°C° 0 mm 3 m/s 759 mmHg 46%
16:00 +7°C° 0 mm 3 m/s 759 mmHg 52%
17:00 +7°C° 0 mm 2 m/s 759 mmHg 58%
18:00 +6°C° 0 mm 2 m/s 760 mmHg 64%
19:00 +4°C° 0 mm 2 m/s 760 mmHg 68%
20:00 +3°C° 0 mm 2 m/s 761 mmHg 73%
21:00 +2°C° 0 mm 2 m/s 761 mmHg 77%
22:00 +2°C° 0 mm 1 m/s 762 mmHg 78%
23:00 +2°C° 0 mm 1 m/s 762 mmHg 79%

Mâine, 12 Aprilie, Luni

Timp Temperatura Precipitaţii Vânt Presiune Umiditate
00:00 +1°C° 0 mm 1 m/s 762 mmHg 79%
01:00 +1°C° 0 mm 1 m/s 763 mmHg 79%
02:00 +1°C° 0 mm 1 m/s 763 mmHg 78%
03:00 +1°C° 0 mm 1 m/s 764 mmHg 78%
04:00 +1°C° 0 mm 1 m/s 764 mmHg 77%
05:00 +1°C° 0 mm 1 m/s 764 mmHg 77%
06:00 +2°C° 0 mm 1 m/s 764 mmHg 76%
07:00 +3°C° 0 mm 1 m/s 764 mmHg 74%
08:00 +4°C° 0 mm 2 m/s 764 mmHg 71%
09:00 +6°C° 0 mm 2 m/s 764 mmHg 69%
10:00 +8°C° 0 mm 3 m/s 763 mmHg 69%
11:00 +9°C° 0 mm 3 m/s 763 mmHg 69%
12:00 +10°C° 0 mm 3 m/s 763 mmHg 69%
13:00 +11°C° 0 mm 3 m/s 763 mmHg 67%
14:00 +11°C° 0 mm 3 m/s 762 mmHg 65%
15:00 +12°C° 0 mm 4 m/s 762 mmHg 63%
16:00 +11°C° 0 mm 3 m/s 762 mmHg 67%
17:00 +11°C° 0 mm 3 m/s 762 mmHg 71%
18:00 +10°C° 0 mm 2 m/s 761 mmHg 75%
19:00 +9°C° 0 mm 2 m/s 761 mmHg 80%
20:00 +8°C° 0 mm 2 m/s 761 mmHg 86%
21:00 +6°C° 0 mm 2 m/s 761 mmHg 91%
22:00 +6°C° 0 mm 2 m/s 761 mmHg 91%
23:00 +6°C° 0 mm 2 m/s 760 mmHg 92%

Poimâine, 13 Aprilie, Marţi

Timp Temperatura Precipitaţii Vânt Presiune Umiditate
00:00 +6°C° 0 mm 2 m/s 760 mmHg 92%
01:00 +6°C° 0 mm 2 m/s 760 mmHg 91%
02:00 +5°C° 0 mm 3 m/s 759 mmHg 89%
03:00 +5°C° 0 mm 3 m/s 758 mmHg 88%
04:00 +5°C° 0 mm 3 m/s 758 mmHg 89%
05:00 +5°C° 0 mm 3 m/s 758 mmHg 91%
06:00 +5°C° 0 mm 3 m/s 757 mmHg 93%
07:00 +7°C° 0 mm 3 m/s 757 mmHg 90%
08:00 +8°C° 0 mm 3 m/s 756 mmHg 87%
09:00 +8°C° 0 mm 4 m/s 756 mmHg 84%
10:00 +11°C° 0 mm 4 m/s 756 mmHg 79%
11:00 +12°C° 0 mm 4 m/s 755 mmHg 74%
12:00 +14°C° 0 mm 4 m/s 755 mmHg 68%
13:00 +14°C° 0 mm 4 m/s 754 mmHg 66%
14:00 +15°C° 0 mm 4 m/s 754 mmHg 64%
15:00 +17°C° 0 mm 4 m/s 754 mmHg 61%
16:00 +17°C° 0 mm 3 m/s 753 mmHg 63%
17:00 +16°C° 0 mm 3 m/s 753 mmHg 64%
18:00 +14°C° 0 mm 3 m/s 753 mmHg 65%
19:00 +13°C° 0 mm 3 m/s 753 mmHg 70%
20:00 +12°C° 0 mm 3 m/s 753 mmHg 75%
21:00 +11°C° 0 mm 3 m/s 753 mmHg 80%
22:00 +11°C° 0 mm 3 m/s 753 mmHg 82%
23:00 +11°C° 0 mm 3 m/s 752 mmHg 84%

14 Aprilie, Miercuri

Timp Temperatura Precipitaţii Vânt Presiune Umiditate
00:00 +10°C° 0 mm 3 m/s 752 mmHg 86%
01:00 +10°C° 0.2 mm 3 m/s 752 mmHg 88%
02:00 +10°C° 0.2 mm 3 m/s 752 mmHg 90%
03:00 +10°C° 0.2 mm 3 m/s 752 mmHg 92%
04:00 +10°C° 0.1 mm 3 m/s 751 mmHg 92%
05:00 +10°C° 0.1 mm 3 m/s 751 mmHg 92%
06:00 +10°C° 0.1 mm 3 m/s 751 mmHg 93%
07:00 +10°C° 0.1 mm 3 m/s 751 mmHg 91%
08:00 +10°C° 0.1 mm 3 m/s 751 mmHg 90%
09:00 +10°C° 0.1 mm 4 m/s 750 mmHg 88%
10:00 +10°C° 0.2 mm 4 m/s 750 mmHg 89%
11:00 +11°C° 0.2 mm 4 m/s 750 mmHg 89%
12:00 +11°C° 0.2 mm 3 m/s 750 mmHg 89%
13:00 +11°C° 0.4 mm 3 m/s 750 mmHg 89%
14:00 +10°C° 0.4 mm 3 m/s 750 mmHg 90%
15:00 +10°C° 0.4 mm 3 m/s 751 mmHg 90%
16:00 +10°C° 0.4 mm 2 m/s 751 mmHg 90%
17:00 +9°C° 0.4 mm 2 m/s 751 mmHg 91%
18:00 +8°C° 0.4 mm 2 m/s 751 mmHg 91%
19:00 +7°C° 0.1 mm 2 m/s 752 mmHg 86%
20:00 +7°C° 0.1 mm 2 m/s 752 mmHg 82%
21:00 +6°C° 0.1 mm 2 m/s 753 mmHg 78%
22:00 +5°C° 0 mm 2 m/s 753 mmHg 78%
23:00 +5°C° 0 mm 2 m/s 753 mmHg 79%

15 Aprilie, Joi

Timp Temperatura Precipitaţii Vânt Presiune Umiditate
00:00 +4°C° 0 mm 2 m/s 753 mmHg 79%
01:00 +3°C° 0 mm 2 m/s 753 mmHg 81%
02:00 +3°C° 0 mm 2 m/s 753 mmHg 82%
03:00 +2°C° 0 mm 2 m/s 753 mmHg 83%
04:00 +2°C° 0 mm 2 m/s 753 mmHg 83%
05:00 +2°C° 0 mm 2 m/s 753 mmHg 84%
06:00 +2°C° 0 mm 2 m/s 753 mmHg 85%
07:00 +3°C° 0 mm 2 m/s 753 mmHg 81%
08:00 +3°C° 0 mm 2 m/s 753 mmHg 77%
09:00 +3°C° 0 mm 2 m/s 753 mmHg 73%
10:00 +4°C° 0 mm 2 m/s 753 mmHg 68%
11:00 +5°C° 0 mm 2 m/s 752 mmHg 63%
12:00 +7°C° 0 mm 1 m/s 752 mmHg 58%
13:00 +6°C° 0 mm 2 m/s 752 mmHg 55%
14:00 +6°C° 0 mm 2 m/s 752 mmHg 53%
15:00 +7°C° 0 mm 2 m/s 752 mmHg 51%
16:00 +6°C° 0 mm 2 m/s 751 mmHg 53%
17:00 +6°C° 0 mm 2 m/s 751 mmHg 55%
18:00 +5°C° 0 mm 2 m/s 751 mmHg 57%
19:00 +4°C° 0 mm 2 m/s 751 mmHg 63%
20:00 +3°C° 0 mm 2 m/s 751 mmHg 68%
21:00 +2°C° 0 mm 2 m/s 751 mmHg 74%
22:00 +2°C° 0 mm 2 m/s 751 mmHg 77%
23:00 +1°C° 0 mm 2 m/s 751 mmHg 80%

16 Aprilie, Vineri

Timp Temperatura Precipitaţii Vânt Presiune Umiditate
00:00 +1°C° 0 mm 2 m/s 751 mmHg 83%
01:00 -1°C° 0 mm 2 m/s 752 mmHg 83%
02:00 -1°C° 0 mm 3 m/s 752 mmHg 84%
03:00 -1°C° 0 mm 3 m/s 752 mmHg 85%
04:00 -1°C° 0 mm 3 m/s 752 mmHg 83%
05:00 -2°C° 0 mm 4 m/s 753 mmHg 80%
06:00 -2°C° 0 mm 4 m/s 753 mmHg 78%
07:00 -1°C° 0 mm 5 m/s 754 mmHg 73%
08:00 0°C° 0 mm 5 m/s 754 mmHg 68%
09:00 +1°C° 0 mm 6 m/s 755 mmHg 62%
10:00 +2°C° 0.2 mm 6 m/s 755 mmHg 62%
11:00 +2°C° 0.2 mm 6 m/s 755 mmHg 61%
12:00 +2°C° 0.2 mm 6 m/s 755 mmHg 60%
13:00 +2°C° 0.1 mm 6 m/s 756 mmHg 59%
14:00 +2°C° 0.1 mm 6 m/s 756 mmHg 57%
15:00 +2°C° 0.1 mm 7 m/s 756 mmHg 55%
16:00 +1°C° 0 mm 6 m/s 757 mmHg 52%
17:00 -1°C° 0 mm 6 m/s 758 mmHg 49%
18:00 -1°C° 0 mm 6 m/s 758 mmHg 46%
19:00 -3°C° 0 mm 6 m/s 759 mmHg 46%
20:00 -4°C° 0 mm 5 m/s 759 mmHg 46%
21:00 -5°C° 0 mm 5 m/s 760 mmHg 46%
22:00 -5°C° 0 mm 5 m/s 760 mmHg 47%
23:00 -5°C° 0 mm 4 m/s 760 mmHg 47%
Arată mai mult

Formular de consimțământ

Meteoprog și furnizorii noștri de servicii pot stoca și accesa date personale, precum cookies, identificatori de dispozitiv sau alte tehnologii similare pe dispozitivul dumneavoastră și procesa astfel de date pentru a personaliza conținutul și reclamele, dar și pentru a oferi caracteristici de social media și pentru a analiza traficul.

  • Stocarea și/sau accesarea informațiilor pe dispozitivul dumneavoastră

    Cookies, identificatori de dispozitiv sau alte informații pot fi stocate sau accesate pe dispozitiv în scopurile indicate mai sus.

  • Reclame și conținut personalizat, evaluarea reclamelor și a conținutului, informații despre audiențe și dezvoltarea produselor

    Reclamele și conținutul pot fi personalizate pe baza unui profil. Pot fi adăugate date suplimentare pentru a personaliza mai bine reclamele și conținutul. Performanța reclamelor și conținutului poate fi măsurată. Pot fi obținute informații despre utilizatorii care au văzut reclamele și conținutul. Aceste date pot fi utilizate pentru a dezvolta sau îmbunătăți experiența utilizatorilor, sistemele și software-ul.

Dând clic pe ‘Sunt de acord’, permiteți utilizarea cookie-urilor menționate, a identificatorilor de dispozitiv, balizelor web sau altor tehnologii similare. Setările pot fi modificate din browser-ul dispozitivului dumneavoastră.

În anumite scopuri, interesele legitime pot prima asupra consimțământului. Puteți citi mai multe informații în acest sens în Politica privind Confidențialitatea Datelor și Cookie.